Погода в Кызыле

Погода в Кызыле : погода сейчас, прогноз погоды и архив. Всё, что Вы хотите узнать о погоде в Кызыле!

Хотите узнать прогноз погоды в Кызыле? Тогда Вам сюда: Погода в Кызыле

Поиск расширенной информации на нашем сайте:

Другие новости

Новости СМИ2

Главная страница сайта

Новости сайта

03.07.2017

Напоминаем, что на нашем специализированном сайте Метеоцентр.Азия вы можете получить высокодетализированные автоматические прогнозы погоды по пунктам России, СНГ и мира в авиационном формате (включающие направление и скорость ветра, видимость, явления погоды, количество и форму облачности, нижнюю и верхнюю границу облачности).


Погода в Кызыле - сегодня

Время (UTC), дата Ветер
(°,м/с) 
Видим.   Явления Облачность Т
(°С)
Тd
(°С)
f(%) Тe
(°С)
Pmin
(гПа)
dP
(гПа)
Po
(мм)
O2
(г/м3)
Тmin Tmax R s Состояние
почвы
09 16.04.18 070 (В) 20000 м    9/3 1000 м средняя, верхняя 
[Sc|Ac trans|Ci fib]
+14.7 -3.4 28 +15  1004.9  -3.3  700  268           
12 16.04.18 060 (СВ) 20000 м    9/5 1000 м кучево-дожд., средняя, верхняя 
[Cb cap|Ac trans|Cs]
+14.8 -2 31 +16  1001.9  -2.7  698  267    +16.3       
15 16.04.18 260 (З) 10 км    10/8 1000 м средняя 
[Sc|Ac As]
+11.2 +1.8 52 +12  1001.2  -1.5  697  269           
00 17.04.18 240 (ЮЗ) 20000 м    9/8 600 м кучево-дожд., средняя, верхняя 
[Cb cap|Ac trans|Ci fib]
+5.3 +2.1 80 +6  1010.7  702  277  +3.8       
03 17.04.18 тихо ()   20000 м    9/6 1000 м кучево-дожд., средняя, верхняя 
[Cb cap|Ac trans|Ci sp]
+10.8 +3.3 60 +11  1010.4  1.2  703  272           
12 17.04.18 350 (С) 20000 м    5/5 1000 м 
[Sc]
+14.1 +0.1 38 +15  1004.8  -0.9  700  268    +16.5  0.0     
15 17.04.18 тихо ()   10 км    1/1 1000 м 
[Sc]
+7.3 +0.8 63 +7  1007.3  0.6  700  274           
18 17.04.18 160 (Ю) 10 км    ясно 
+3.3 -0.5 76 +4  1008.9  0.5  700  279           
21 17.04.18 270 (З) 10 км    4/0 верхняя 
[Cs]
+2.7 -2.7 68 +2  1010.7  1.5  701  280           
00 18.04.18 300 (СЗ) 2{12}  20000 м    9/5 1000 м кучево-дожд., средняя, верхняя 
[Cb cap|Ac trans|Ci fib]
+5.6 -5.1 46 +5  1012.6  2.5  703  278  +1.1        влажная 
06 18.04.18 030 (СВ) 20000 м    9/5 1000 м кучево-дожд., средняя, верхняя 
[Cb cap|Ac trans|Ci fib]
+11.4 -8 25 +12  1011.3  -0.5  704  273           
09 18.04.18 280 (З) 20000 м    9/4 1000 м кучево-дожд., средняя, верхняя 
[Cb cap|Ac trans|Ci fib]
+12.2 -4.4 31 +12  1009  -1.9  702  271           
12 18.04.18 340 (С) 20000 м    10/10 1000 м кучево-дожд. 
[Cb cap]
+10.6 -8.2 26 +10  1008.9  -0.6  702  273    +13.4       
15 18.04.18 030 (СВ) 10 км    10/10 1000 м кучево-дожд. 
[Cb cap]
+8.1 -5.9 36 +9  1010.7  1.1  702  275           
18 18.04.18 350 (С) 10 км    10/10 1000 м кучево-дожд. 
[Cb cap]
+6.6 -3.9 47 +6  1012.2  1.1  703  277           
21 18.04.18 290 (З) 10 км    10/10 1000 м кучево-дожд. 
[Cb cap]
+5.3 -4.3 50 +6  1013.6  0.9  704  279           
00 19.04.18 020 (С) 20000 м    8/4 1000 м кучево-дожд., средняя 
[Cb cap|Ac trans]
+3.4 -5.2 53 +4  1016.4  2.1  706  281  +1.4        влажная 
03 19.04.18 340 (С) 20000 м    9/4 1000 м кучево-дожд., средняя, верхняя 
[Cb cap|Ac trans|Ci fib]
+7.8 -7.9 32 +7  1016.9  1.6  707  278           
06 19.04.18 310 (СЗ) 20000 м    9/8 1000 м кучево-дожд., верхняя 
[Cb cap|Ci sp]
+8.8 -7.9 30 +8  1016.3  -0.3  707  276           
09 19.04.18 290 (З) 20000 м    9/6 1000 м верхняя 
[Cu med, cong|Ci sp]
+10.1 -4.9 34 +10  1014.8  -1.1  706  275           
12 19.04.18 080 (В) 20000 м    9/1 1000 м верхняя 
[Cu hum|Ci sp]
+10.2 -5.6 32 +10  1013.3  -1.3  705  274    +11.4       
15 19.04.18 010 (С) 10 км    6/0 верхняя 
[Ci fib]
+4.1 -3.4 58 +5  1015.6  0.6  705  280           
18 19.04.18 060 (СВ) 10 км    5/0 верхняя 
[Ci fib]
+3.5 -4.3 57 +4  1015.5  -0.3  705  281           
21 19.04.18 180 (Ю) 20000 м    ясно 
+0.6 -5.9 62 +1  1014.4  -1.2  677  273           
00 20.04.18 290 (З) 20000 м    9/4 1000 м верхняя 
[Sc|Ci fib]
+0.4 -4.3 71 +1  1015.9  0.2  705  284  -0.9        замёрзшая 
Время (UTC), дата Ветер
(°,м/с) 
Видим.   Явления Облачность Т
(°С)
Тd
(°С)
f(%) Тe
(°С)
Pmin
(гПа)
dP
(гПа)
Po
(мм)
O2
(г/м3)
Тmin Tmax R s Состояние
почвы

Для получения пояснительной информации подведите курсор к названию столбца.

ПОГОДА в Кызыле - архив

Всё, что Вы хотите узнать о погоде в Кызыле - удобно и подробно!

Выберите нужную дату (начиная с 1 января 2015* года) и нажмите кнопку "Найти".
Будут отображены архивные сводки погоды по пункту Кызыл, начиная с указанной даты.


Отображать данные в формате CSV (для использования в таблицах Excel)


Внимание! Наш архив погоды предназначен исключительно для личного некоммерческого использования в познавательных целях. Если Вам необходимы официальные справки о состоянии погоды (для производственных, юридических, коммерческих и т.п. целей), обращайтесь в органы Росгидромета.

*Примечание: данная дата относится к архиву по метеостанциям СССР (Россия, СНГ, Балтия).
Архив по метеостанциям Зарубежной Европы и Азии (кроме Китая) хранится 10 дней, по другим регионам земного шара (Китай, Африка, Америка, Австралия, Океания) - 1 день.

Кызыл - район местоположения метеостанции


Название, широта, долгота, высота метеостанции:
Кызыл 51.7°ш. 94.5°д. 628 м над ур. моря [Российская Федерация]

Дополнительная информация

В oтличие oт бoльшинства пoгoдных сайтoв мы публикуем пoдрoбную метеoинфoрмацию в детальнoм прoфессиoнальнoм фoрмате.

Характеристики температуры и влажнoсти вoздуха измеряются на высoте 2 м в тени вдали oт зданий и деревьев.
Скoрoсть ветра измеряется на высoте 10 м (на урoвне рoста челoвека скoрoсть ветра ниже в 1.5-2 раза). Если метеoстанция нахoдится в гoрoде или в лесу, тo скoрoсть ветра занижена на 2-4 м/с пo сравнению с oткрытым местoм. Скoрoсть ветра над акватoриями крупных рек и oзёр, а также на вершинах хoлмoв на 2-5 м/с выше, чем в oбычных услoвиях.
Атмoсфернoе давление в разных тoчках местнoсти мoжет значительнo oтличаться oт давления на метеoстанции, в зависимoсти oт услoвий рельефа (при пoдъёме на 10 м давление пoнижается примернo на 1 мм рт.ст.).